Temp
-10 -10 -10 -10 -9 -9 -9 -9 -9 -8 -8 -8 -8 -7 -7 -7 -7 -7 -6 -6 -6 -6 -5 -5 -5 -4 -4 -4 -4 -4 -3 -3 -3 -4 -3 -3 -2 -3 -3 -2 -2 -1 -1
-10 -10 -10 -10 -10 -10 -10 -9 -9 -9 -8 -8 -8 -8 -8 -8 -7 -7 -7 -7 -6 -6 -6 -5 -5 -4 -4 -4 -4 -4 -4 -3 -4 -4 -4 -3 -3 -3 -3 -3 -2 -2 -2
-10 -10 -10 -10 -10 -10 -10 -10 -9 -9 -9 -9 -9 -9 -8 -8 -8 -8 -7 -7 -7 -6 -6 -6 -5 -5 -4 -4 -4 -4 -4 -4 -4 -4 -4 -3 -3 -3 -3 -3 -3 -3 -3
-11 -11 -11 -11 -10 -10 -10 -10 -10 -10 -9 -9 -9 -9 -8 -8 -8 -8 -7 -7 -7 -6 -6 -6 -5 -5 -5 -4 -4 -4 -4 -4 -4 -4 -4 -4 -4 -4 -4 -4 -3 -3 -3
-11 -11 -11 -10 -10 -10 -10 -10 -10 -10 -10 -9 -9 -9 -8 -8 -8 -7 -7 -7 -7 -7 -7 -6 -6 -5 -5 -5 -4 -4 -5 -5 -4 -4 -5 -4 -5 -4 -4 -4 -4 -4 -4
-11 -11 -11 -11 -10 -10 -10 -11 -10 -10 -10 -9 -9 -8 -8 -8 -8 -7 -7 -7 -7 -7 -6 -6 -6 -6 -6 -5 -5 -4 -5 -5 -5 -5 -6 -6 -5 -5 -4 -5 -5 -4 -4
-12 -12 -12 -11 -11 -11 -11 -11 -11 -10 -10 -9 -9 -9 -9 -8 -8 -8 -7 -7 -7 -7 -7 -6 -7 -7 -6 -6 -5 -5 -6 -5 -5 -4 -5 -5 -5 -5 -4 -5 -5 -4 -4
-12 -12 -12 -12 -11 -11 -12 -11 -11 -11 -10 -10 -10 -10 -10 -10 -9 -8 -8 -8 -7 -7 -7 -7 -7 -7 -7 -6 -6 -5 -6 -5 -5 -5 -5 -5 -6 -5 -4 -4 -5 -5 -5
-13 -13 -13 -12 -12 -12 -12 -12 -12 -11 -11 -11 -11 -11 -11 -11 -11 -10 -9 -8 -8 -7 -7 -7 -7 -7 -7 -7 -6 -6 -5 -5 -5 -6 -5 -6 -6 -5 -5 -5 -4 -5 -5
-13 -13 -13 -13 -12 -12 -12 -12 -12 -12 -12 -12 -12 -12 -12 -11 -11 -11 -10 -9 -8 -8 -8 -7 -7 -7 -7 -7 -6 -5 -5 -5 -5 -5 -5 -6 -6 -5 -5 -5 -5 -5 -5
-13 -13 -13 -13 -13 -13 -12 -13 -13 -13 -13 -13 -12 -12 -12 -11 -11 -10 -10 -9 -9 -8 -8 -7 -7 -7 -7 -6 -6 -5 -4 -5 -5 -5 -5 -5 -5 -5 -5 -5 -5 -5 -5
-14 -14 -14 -14 -13 -13 -13 -13 -13 -13 -13 -12 -12 -12 -12 -11 -10 -10 -10 -9 -9 -8 -7 -7 -7 -6 -6 -6 -6 -6 -6 -5 -6 -5 -5 -5 -5 -5 -5 -5 -5 -5 -5
-14 -14 -14 -14 -14 -13 -13 -13 -13 -13 -13 -12 -12 -11 -11 -11 -10 -10 -9 -9 -9 -8 -7 -7 -6 -7 -6 -6 -6 -6 -5 -5 -5 -5 -5 -5 -5 -5 -5 -5 -5 -5 -6
-15 -15 -14 -14 -14 -13 -13 -13 -13 -13 -12 -12 -12 -11 -11 -11 -11 -10 -10 -9 -9 -8 -7 -7 -7 -6 -6 -6 -5 -5 -5 -5 -5 -5 -5 -5 -5 -6 -5 -6 -6 -6 -6
-15 -15 -15 -14 -14 -13 -13 -13 -13 -13 -12 -12 -11 -11 -11 -11 -11 -10 -9 -9 -8 -8 -7 -7 -6 -6 -6 -6 -6 -6 -5 -6 -5 -5 -6 -5 -6 -6 -6 -6 -6 -6 -6
-15 -15 -15 -14 -14 -13 -13 -12 -13 -13 -12 -12 -12 -11 -11 -11 -10 -10 -9 -8 -8 -8 -7 -7 -6 -6 -6 -6 -6 -6 -6 -6 -6 -6 -6 -6 -6 -6 -7 -7 -7 -7 -7
-16 -16 -15 -15 -14 -13 -13 -12 -11 -12 -12 -12 -11 -11 -11 -11 -10 -10 -9 -8 -8 -7 -7 -7 -7 -6 -6 -6 -6 -6 -6 -6 -6 -6 -6 -6 -7 -7 -7 -7 -7 -7 -7
-16 -16 -15 -15 -14 -14 -13 -13 -12 -12 -11 -11 -11 -11 -11 -10 -10 -10 -9 -9 -8 -7 -7 -7 -7 -7 -6 -6 -6 -6 -6 -6 -6 -7 -7 -7 -7 -7 -7 -7 -7 -7 -7
-16 -16 -15 -15 -15 -14 -13 -13 -13 -12 -12 -11 -11 -11 -11 -11 -11 -10 -9 -9 -8 -7 -7 -7 -7 -7 -7 -7 -6 -6 -6 -7 -7 -7 -7 -7 -7 -7 -8 -7 -7 -7 -7
-16 -16 -16 -15 -14 -14 -13 -13 -13 -13 -12 -12 -12 -12 -11 -11 -11 -10 -10 -9 -8 -8 -7 -7 -7 -7 -7 -7 -7 -7 -7 -7 -7 -7 -8 -8 -8 -8 -8 -8 -7 -8 -8
-16 -16 -16 -15 -14 -14 -13 -13 -13 -12 -12 -12 -12 -12 -11 -11 -11 -11 -10 -9 -9 -8 -8 -8 -7 -8 -7 -7 -7 -8 -8 -8 -8 -8 -8 -9 -8 -8 -8 -8 -8 -8 -8
-16 -16 -15 -15 -14 -14 -13 -13 -13 -13 -12 -12 -12 -12 -11 -11 -11 -11 -10 -10 -9 -9 -8 -8 -8 -8 -8 -8 -8 -8 -8 -8 -8 -9 -10 -9 -8 -8 -8 -9 -9 -9 -9
-16 -16 -15 -15 -14 -14 -13 -13 -13 -13 -12 -12 -12 -12 -12 -11 -11 -11 -10 -10 -10 -9 -9 -9 -9 -9 -9 -9 -9 -9 -9 -10 -11 -10 -9 -9 -9 -9 -9 -9 -9 -9 -9
-16 -16 -15 -15 -14 -14 -13 -13 -13 -13 -13 -13 -13 -12 -12 -11 -11 -11 -11 -10 -10 -10 -10 -10 -10 -10 -9 -9 -9 -10 -11 -11 -11 -10 -9 -10 -10 -10 -9 -9 -9 -10 -10
-16 -16 -15 -15 -14 -14 -14 -14 -13 -13 -13 -13 -13 -13 -12 -12 -11 -11 -11 -11 -10 -10 -10 -10 -10 -10 -10 -10 -11 -12 -12 -11 -11 -11 -10 -10 -10 -10 -10 -10 -10 -10 -10
-16 -16 -16 -15 -15 -15 -14 -14 -14 -14 -14 -13 -13 -13 -12 -12 -12 -12 -12 -11 -11 -11 -11 -11 -11 -11 -11 -12 -12 -12 -12 -11 -11 -11 -11 -11 -11 -10 -10 -10 -11 -11 -11
Height
3009 3003 2999 2993 2988 2984 2979 2975 2971 2969 2967 2965 2964 2963 2962 2963 2963 2964 2965 2967 2968 2972 2974 2978 2982 2985 2987 2991 2996 3000 3003 3007 3008 3012 3015 3020 3022 3025 3027 3030 3032 3035 3038
3002 2995 2990 2984 2979 2975 2970 2966 2963 2959 2958 2956 2955 2954 2953 2953 2954 2954 2956 2957 2958 2961 2965 2967 2971 2975 2978 2982 2986 2990 2994 2998 3001 3004 3006 3012 3015 3018 3020 3023 3026 3028 3030
2994 2987 2981 2976 2972 2967 2962 2958 2955 2952 2949 2948 2946 2946 2945 2944 2944 2945 2946 2947 2949 2951 2954 2957 2960 2964 2968 2972 2976 2981 2985 2990 2994 2996 2997 3003 3006 3010 3013 3016 3019 3021 3024
2987 2980 2974 2969 2965 2959 2954 2950 2947 2945 2942 2940 2938 2937 2937 2936 2936 2936 2936 2936 2938 2940 2943 2945 2949 2954 2958 2963 2967 2971 2976 2980 2985 2988 2989 2994 2999 3003 3006 3009 3012 3015 3017
2979 2974 2967 2962 2958 2952 2947 2943 2940 2937 2935 2932 2930 2928 2926 2926 2927 2927 2926 2926 2926 2929 2932 2936 2940 2943 2948 2953 2957 2962 2967 2971 2976 2979 2981 2986 2991 2995 2999 3003 3006 3010 3011
2973 2966 2960 2955 2951 2945 2940 2936 2933 2929 2926 2923 2921 2918 2917 2916 2916 2916 2917 2917 2917 2918 2921 2925 2929 2933 2937 2942 2947 2952 2958 2962 2966 2969 2973 2977 2983 2989 2992 2996 2999 3003 3006
2966 2960 2953 2948 2944 2938 2933 2929 2925 2920 2917 2913 2910 2908 2906 2905 2905 2905 2905 2906 2907 2909 2912 2915 2919 2923 2927 2933 2938 2943 2948 2952 2956 2961 2964 2969 2974 2981 2985 2988 2993 2995 2998
2958 2952 2946 2940 2936 2931 2926 2921 2917 2911 2907 2903 2900 2897 2895 2894 2893 2893 2894 2895 2897 2900 2903 2906 2910 2913 2917 2923 2929 2933 2939 2943 2947 2952 2956 2961 2966 2972 2976 2982 2985 2989 2992
2951 2945 2939 2932 2927 2922 2917 2913 2908 2903 2899 2895 2891 2888 2885 2885 2884 2883 2884 2885 2887 2890 2893 2896 2900 2903 2909 2914 2918 2924 2930 2934 2939 2945 2949 2954 2959 2963 2967 2973 2975 2980 2984
2944 2938 2932 2925 2919 2914 2910 2905 2901 2895 2891 2887 2885 2882 2880 2878 2877 2876 2876 2876 2877 2881 2884 2887 2890 2893 2899 2905 2909 2916 2919 2926 2932 2937 2942 2946 2951 2952 2958 2963 2969 2973 2978
2937 2931 2924 2919 2912 2907 2903 2898 2894 2889 2885 2882 2879 2877 2875 2873 2872 2870 2870 2869 2870 2872 2874 2877 2881 2885 2890 2896 2900 2905 2912 2919 2925 2929 2934 2941 2946 2949 2954 2958 2963 2967 2971
2929 2923 2917 2911 2905 2900 2896 2892 2888 2884 2880 2877 2874 2872 2870 2867 2865 2864 2864 2863 2864 2865 2867 2870 2873 2877 2882 2887 2892 2897 2904 2911 2917 2921 2927 2932 2939 2945 2949 2953 2958 2962 2966
2922 2916 2909 2904 2899 2894 2889 2886 2882 2879 2874 2872 2869 2866 2863 2860 2858 2857 2857 2857 2858 2858 2860 2863 2865 2869 2873 2879 2885 2891 2899 2904 2909 2914 2918 2926 2932 2938 2945 2949 2954 2958 2962
2915 2909 2902 2897 2892 2887 2883 2880 2877 2873 2870 2866 2864 2860 2856 2852 2851 2850 2850 2850 2851 2852 2853 2855 2859 2864 2868 2874 2880 2887 2892 2899 2906 2911 2916 2922 2929 2935 2941 2946 2951 2954 2958
2909 2902 2895 2890 2885 2881 2878 2875 2872 2869 2864 2861 2858 2854 2849 2847 2846 2845 2845 2845 2846 2847 2849 2852 2857 2861 2865 2871 2876 2882 2888 2896 2903 2909 2914 2920 2926 2933 2938 2943 2947 2951 2955
2902 2895 2888 2883 2879 2875 2872 2871 2868 2863 2861 2858 2855 2850 2846 2843 2842 2841 2841 2841 2843 2845 2847 2851 2855 2859 2864 2869 2875 2880 2887 2896 2901 2908 2914 2920 2926 2931 2936 2940 2945 2948 2951
2895 2888 2882 2877 2873 2869 2867 2865 2863 2862 2857 2854 2851 2847 2843 2840 2838 2837 2838 2839 2842 2844 2848 2852 2857 2862 2866 2872 2877 2883 2889 2896 2902 2909 2915 2920 2925 2930 2934 2938 2942 2946 2949
2889 2883 2876 2872 2868 2865 2863 2861 2858 2856 2854 2852 2848 2844 2841 2838 2836 2835 2836 2838 2841 2845 2848 2853 2859 2865 2870 2875 2881 2886 2891 2897 2903 2909 2914 2919 2924 2928 2933 2937 2940 2944 2947
2883 2877 2871 2867 2864 2862 2860 2858 2855 2853 2850 2847 2845 2842 2839 2837 2835 2835 2836 2838 2841 2845 2850 2854 2859 2865 2870 2876 2881 2887 2893 2898 2904 2909 2914 2919 2922 2927 2931 2935 2938 2942 2945
2878 2873 2867 2863 2861 2860 2858 2856 2853 2851 2848 2846 2843 2841 2840 2838 2836 2836 2837 2839 2842 2846 2850 2854 2859 2865 2871 2877 2883 2889 2894 2899 2904 2909 2913 2918 2922 2927 2931 2934 2937 2941 2944
2873 2868 2864 2861 2859 2857 2855 2853 2851 2848 2846 2844 2843 2841 2840 2839 2838 2838 2839 2841 2844 2847 2851 2855 2860 2866 2873 2879 2885 2890 2895 2900 2904 2909 2913 2918 2922 2927 2930 2933 2937 2941 2943
2870 2865 2862 2859 2857 2856 2853 2851 2849 2847 2845 2843 2842 2842 2842 2841 2841 2841 2842 2844 2846 2850 2854 2858 2863 2869 2875 2881 2886 2891 2895 2900 2904 2909 2914 2919 2923 2926 2930 2933 2937 2939 2941
2868 2864 2861 2858 2856 2854 2852 2850 2848 2846 2844 2843 2842 2842 2843 2843 2844 2845 2846 2848 2851 2854 2858 2863 2868 2872 2877 2882 2886 2891 2896 2900 2906 2911 2915 2919 2923 2926 2930 2933 2935 2938 2939
2868 2864 2861 2858 2856 2853 2851 2849 2847 2845 2843 2843 2842 2843 2844 2845 2846 2847 2849 2852 2855 2858 2861 2865 2869 2874 2878 2882 2887 2891 2897 2902 2907 2912 2916 2920 2923 2927 2929 2932 2934 2936 2937
2869 2865 2861 2858 2856 2853 2851 2849 2847 2845 2844 2843 2843 2844 2845 2847 2848 2850 2852 2855 2858 2861 2864 2868 2872 2876 2880 2884 2889 2894 2899 2904 2908 2913 2917 2920 2923 2925 2928 2930 2932 2933 2934
2870 2866 2862 2859 2856 2853 2851 2849 2847 2845 2844 2844 2845 2846 2847 2849 2851 2853 2855 2858 2860 2863 2867 2870 2874 2878 2882 2886 2891 2896 2901 2906 2910 2913 2916 2919 2922 2924 2926 2928 2929 2930 2931
Wind_Speed
41 41 40 40 40 38 37 35 35 35 33 31 31 31 31 30 31 33 34 35 37 35 37 39 37 36 38 38 39 38 33 32 33 33 31 25 27 28 24 25 23 23 31
41 41 39 38 37 35 34 34 33 34 32 30 29 30 29 28 28 30 31 33 36 36 36 38 39 38 36 38 38 39 39 35 34 35 34 28 29 31 32 33 29 27 24
40 38 37 36 35 35 33 33 32 31 32 31 30 29 28 29 29 29 30 31 34 36 36 37 38 39 38 37 37 38 39 39 40 38 35 30 28 30 31 32 29 28 26
38 37 35 35 35 33 33 32 30 30 31 31 32 31 30 30 30 30 31 32 32 34 35 37 37 39 39 39 38 39 39 39 36 36 38 33 30 31 32 30 27 30 29
38 36 35 35 35 34 32 31 31 31 31 32 32 33 34 33 32 32 33 34 35 34 35 36 37 38 38 38 38 38 37 35 36 37 42 37 34 31 33 29 26 29 26
37 37 36 36 36 34 32 31 31 32 33 34 33 34 34 35 35 34 34 35 36 36 36 35 34 36 37 37 38 37 38 32 35 40 39 38 37 31 34 28 26 28 34
38 37 37 37 36 33 30 31 32 34 34 34 33 33 34 34 34 35 35 35 36 36 36 35 33 34 35 38 38 38 38 34 35 33 40 40 37 38 27 35 32 32 33
39 39 38 38 36 33 30 30 32 33 32 32 32 32 32 29 29 31 33 34 35 35 35 35 35 33 35 37 36 36 37 36 38 41 39 35 36 41 36 30 29 29 28
39 38 38 39 38 34 30 30 31 31 30 30 29 28 27 24 24 26 28 30 32 32 32 34 34 34 34 35 38 36 39 38 36 39 36 34 36 38 38 34 33 31 32
39 39 38 38 37 34 30 30 30 29 28 26 23 21 21 20 19 21 24 27 28 28 28 30 33 33 33 37 36 39 41 35 35 32 35 32 37 30 34 30 34 33 33
39 38 37 36 35 32 29 28 28 27 26 23 21 18 19 20 19 20 21 25 26 27 29 29 30 30 33 34 35 40 40 42 40 36 40 35 30 24 29 29 27 28 29
38 38 37 35 34 30 28 26 26 26 25 21 20 18 20 22 22 22 22 25 26 27 25 25 26 29 31 31 32 32 32 35 32 36 40 35 39 35 31 30 27 24 26
37 37 36 33 32 28 27 26 25 25 24 21 19 22 22 22 23 22 22 23 25 25 22 23 26 25 27 31 31 35 32 33 28 29 29 35 35 32 29 27 25 24 20
37 37 35 33 31 26 24 25 25 24 23 22 20 24 23 19 17 18 19 19 20 20 21 21 20 22 27 35 33 30 28 30 26 24 23 30 32 27 26 24 21 18 18
37 37 35 32 29 24 22 23 23 21 23 23 21 27 25 14 12 13 14 15 15 15 14 16 18 19 22 30 30 29 32 23 26 24 20 22 26 25 25 23 21 18 17
38 36 34 32 28 22 20 18 18 21 20 21 21 27 20 16 12 11 11 12 11 14 14 16 13 19 18 24 24 26 28 27 25 24 24 25 22 18 19 16 16 15 15
37 35 34 31 26 21 18 20 16 11 17 19 20 22 16 14 11 8 9 10 10 15 17 17 13 16 18 22 21 24 28 25 23 27 26 23 22 19 16 15 15 15 14
35 33 32 29 23 19 18 17 18 17 13 12 17 15 12 11 8 6 9 11 12 17 19 19 17 15 17 20 21 27 26 23 25 25 22 23 20 18 16 16 16 15 14
34 32 29 24 18 17 16 17 17 16 16 14 16 9 9 8 5 5 11 14 16 18 22 22 20 18 21 21 24 29 23 24 27 25 21 20 19 18 18 18 16 15 14
33 30 25 21 16 14 15 16 16 14 14 14 13 6 5 6 2 5 11 15 18 20 23 23 24 23 23 27 28 24 21 24 25 23 21 20 20 19 18 17 16 15 14
33 26 19 16 14 13 14 15 14 14 12 13 9 5 3 2 3 4 10 15 19 22 24 25 26 26 27 27 25 23 21 22 23 22 22 21 19 18 17 17 15 13 11
27 21 17 13 11 12 13 13 14 13 12 10 6 4 3 3 4 6 9 15 20 23 25 25 27 27 26 25 23 22 22 22 23 23 21 19 18 18 17 15 13 10 9
22 17 14 13 12 12 13 12 13 12 10 7 4 4 4 4 5 8 10 15 19 21 22 22 22 24 24 24 25 26 24 24 23 22 20 19 18 16 14 11 9 9 9
21 17 14 13 13 13 12 12 12 10 8 5 4 4 5 5 7 10 12 15 19 21 23 23 24 24 25 26 27 27 27 25 22 21 20 17 15 12 10 9 9 9 8
20 17 15 14 13 12 11 11 10 8 5 3 4 5 5 7 8 11 13 15 17 19 20 22 23 25 26 27 27 27 26 24 22 19 16 14 13 11 10 9 9 9 8
20 17 16 15 14 12 11 10 9 7 4 2 4 6 6 8 10 10 11 13 15 18 20 23 26 27 27 28 27 25 23 20 18 15 13 12 11 10 9 9 8 7 7
Wind_Direction
312 311 309 308 305 303 302 301 299 296 293 289 285 281 277 271 266 261 258 256 254 251 246 244 243 244 243 241 239 237 234 246 258 261 252 250 253 246 250 247 256 263 255
313 312 311 310 307 305 304 303 299 296 294 290 286 282 280 276 269 265 260 255 254 252 248 245 243 242 242 241 240 239 236 236 245 253 259 247 245 248 254 259 259 271 259
315 313 313 311 308 307 307 304 299 295 293 291 287 283 280 279 275 270 266 258 255 252 249 246 243 241 242 242 242 240 238 238 242 251 259 249 245 246 251 259 260 260 256
317 315 314 312 310 310 310 305 299 294 292 289 288 285 280 277 275 274 271 266 260 254 251 250 246 242 239 239 239 240 240 238 239 243 252 247 241 241 247 252 256 262 233
319 317 315 313 312 313 311 305 299 295 292 290 288 285 282 278 273 272 269 266 262 259 252 249 247 244 241 239 239 238 236 238 234 239 247 244 238 241 245 249 250 238 253
320 318 316 315 313 312 309 304 299 297 295 292 289 285 280 277 273 268 265 262 260 259 256 252 250 246 241 238 239 238 237 235 234 239 249 245 238 236 243 236 244 239 233
320 319 316 314 313 311 307 303 301 300 297 294 291 289 285 278 271 265 262 260 256 254 254 250 250 248 241 234 236 237 235 231 239 250 249 250 237 229 229 237 244 245 247
321 319 317 315 315 312 308 306 306 304 301 296 294 293 289 283 272 261 256 255 252 251 249 245 245 245 240 232 232 234 223 236 237 234 246 238 238 235 236 236 240 241 238
320 319 316 315 315 312 309 309 310 308 305 300 297 294 289 283 272 264 259 255 252 250 246 241 242 244 236 228 230 229 231 234 228 232 236 244 235 247 228 228 219 238 222
319 318 316 315 315 311 308 312 313 314 311 304 298 293 289 285 273 264 259 258 255 251 245 244 247 242 230 224 232 228 226 222 224 234 231 238 233 242 220 219 236 220 231
317 317 315 315 315 309 306 312 313 315 313 306 298 293 291 287 278 268 259 257 255 253 251 247 243 239 222 231 230 229 230 228 232 235 232 224 220 225 220 222 218 226 230
317 317 316 315 314 307 305 309 312 314 313 305 297 296 295 287 281 272 262 258 258 256 250 243 234 233 230 229 220 221 217 221 222 225 227 232 228 218 227 211 218 216 222
318 318 316 315 315 307 304 307 309 312 312 305 297 305 297 289 279 269 260 255 256 254 248 241 235 225 214 206 203 204 214 221 215 213 230 216 209 211 218 224 218 217 222
320 319 318 316 315 306 303 305 307 311 311 305 299 312 313 293 278 268 261 252 250 246 241 235 213 209 207 204 207 209 206 204 216 195 197 201 204 210 200 204 205 206 209
323 321 319 317 316 306 302 305 306 308 310 311 304 318 318 304 283 269 256 243 241 235 217 198 188 189 192 200 208 211 188 192 184 178 185 186 185 188 195 203 201 206 213
324 322 321 319 318 309 303 305 308 308 307 308 306 313 314 306 293 275 251 233 226 200 182 172 161 165 164 166 164 172 175 174 175 180 177 183 186 188 187 191 198 207 210
325 324 321 319 318 310 307 310 308 295 304 305 306 316 311 307 294 268 235 217 203 183 171 162 156 155 158 165 166 167 166 165 166 170 173 175 180 187 192 196 202 202 197
326 323 320 319 316 312 313 315 316 315 306 288 312 318 315 314 301 257 209 196 193 182 170 164 165 166 172 176 174 173 171 170 169 174 174 177 186 191 194 196 193 192 198
325 327 322 320 317 314 316 318 319 318 318 318 328 324 325 331 311 223 191 187 183 182 178 174 173 177 177 183 179 175 177 177 175 177 183 188 186 189 187 186 188 190 189
330 329 322 319 318 316 318 319 320 319 317 321 327 317 325 347 341 182 178 180 179 178 177 174 168 167 168 168 169 171 172 178 182 187 186 183 180 181 183 184 181 181 188
331 331 326 321 318 319 321 322 320 322 316 323 320 295 296 22 78 151 177 175 168 166 165 161 160 163 167 170 174 178 178 181 183 182 176 172 174 179 180 178 178 185 193
333 333 332 332 329 327 327 325 324 322 318 321 308 267 248 185 122 131 154 160 157 155 154 152 154 157 163 170 174 175 175 178 176 167 165 169 175 177 176 178 182 193 209
341 342 341 341 339 336 333 327 326 324 324 315 278 238 221 193 164 149 147 151 150 150 150 153 159 163 165 168 171 171 167 160 158 161 168 173 173 173 178 185 196 212 222
351 351 349 348 345 341 337 334 330 329 323 298 246 221 203 186 170 158 156 157 155 156 158 161 163 167 172 173 170 164 160 160 162 167 169 170 174 182 190 199 211 221 230
355 356 356 354 348 344 342 341 339 334 319 281 216 203 187 175 166 161 162 163 165 166 166 167 170 172 172 166 161 161 162 162 165 168 175 181 185 191 198 206 217 227 237
360 1 3 359 354 352 351 351 350 340 323 239 194 186 173 166 160 158 162 166 169 171 174 175 173 170 166 163 163 164 164 168 173 176 178 184 190 197 204 213 222 234 240